F4FAA-12 Weather Reports


time (UTC)temp
C
wind
direction
speed
KPH
gust
KPH
rain 1hr
cm
rain 24hr
cm
rain mn
cm
humidity
%
barometer
mb
20260507085702 12 353 6.4 8.0 0.00 0.10 0.13 65 1018.1
20260507085136 12 234 3.2 11.3 0.00 0.10 0.13 66 1018.1
20260507085028 12 261 3.2 11.3 0.00 0.00 0.00 67 1018.1
20260507084050 12 3 0.0 11.3 0.00 0.00 0.00 67 1018.2
20260507083659 11 355 6.4 9.7 0.00 0.10 0.13 68 1018.2
20260507083234 11 32 1.6 8.0 0.00 0.10 0.13 69 1018.3
20260507082525 11 290 0.0 6.4 0.00 0.00 0.00 69 1018.2
20260507082254 11 206 0.0 6.4 0.00 0.10 0.10 69 1018.3
20260507082229 11 264 0.0 6.4 0.00 0.10 0.10 70 1018.3
20260507081259 11 31 0.0 11.3 0.00 0.10 0.10 69 1018.3
20260507080741 11 292 4.8 8.0 0.00 0.10 0.10 69 1018.3
20260507080130 11 306 3.2 14.5 0.00 0.10 0.10 70 1018.5
20260507075627 11 316 3.2 9.7 0.00 0.10 0.10 71 1018.3
20260507075246 11 348 1.6 9.7 0.00 0.10 0.10 72 1018.3
20260507074748 11 348 3.2 6.4 0.03 0.10 0.10 73 1018.2
20260507074653 11 79 0.0 6.4 0.03 0.10 0.10 77 1018.3
20260507074130 11 302 0.0 6.4 0.03 0.10 0.10 77 1018.2
20260507073230 11 259 0.0 6.4 0.03 0.10 0.10 77 1018.2
20260507072740 11 237 0.0 6.4 0.03 0.10 0.10 77 1018.2
20260507072559 10 307 0.0 6.4 0.03 0.10 0.10 77 1018.2
20260507071748 10 351 3.2 6.4 0.03 0.10 0.10 77 1018.3
20260507071136 10 213 0.0 6.4 0.03 0.10 0.10 77 1018.3
20260507070759 10 240 0.0 6.4 0.03 0.10 0.10 78 1018.3
20260507070238 10 0 0.0 6.4 0.03 0.10 0.10 77 1018.2
20260507065646 10 299 3.2 6.4 0.00 0.05 0.10 77 1018.2
20260507065306 10 257 0.0 6.4 0.00 0.05 0.10 77 1018.1
20260507064734 10 231 1.6 8.0 0.00 0.05 0.05 77 1018.1
20260507064301 10 223 3.2 8.0 0.00 0.05 0.05 77 1018.1
20260507063710 10 243 0.0 6.4 0.00 0.05 0.05 77 1018.0
20260507063647 10 217 1.6 8.0 0.03 0.05 0.05 77 1018.1
20260507063417 10 230 4.8 8.0 0.03 0.05 0.05 77 1018.1
20260507062305 10 220 1.6 8.0 0.03 0.05 0.05 78 1017.9
20260507061702 10 24 0.0 4.8 0.03 0.05 0.05 78 1017.8
20260507061211 9 18 0.0 4.8 0.03 0.05 0.05 78 1017.8
20260507060802 9 130 0.0 1.6 0.03 0.05 0.05 79 1017.9
20260507060203 8 124 0.0 8.0 0.00 0.03 0.05 78 1017.8
20260507060145 9 124 0.0 4.8 0.03 0.05 0.05 79 1017.9
20260507055202 8 124 3.2 8.0 0.00 0.03 0.05 78 1017.8
20260507055153 8 85 0.0 0.0 0.00 0.03 0.05 77 1017.7
20260507054250 8 348 0.0 1.6 0.00 0.03 0.05 77 1017.6
20260507053641 8 347 0.0 3.2 0.00 0.03 0.03 77 1017.5
20260507053109 8 283 3.2 3.2 0.00 0.00 0.00 77 1017.3
20260507052634 8 274 0.0 3.2 0.00 0.03 0.03 77 1017.3
20260507052145 8 293 0.0 3.2 0.00 0.03 0.03 77 1017.3
20260507051651 8 292 0.0 3.2 0.00 0.03 0.03 77 1017.3
20260507051145 8 298 0.0 1.6 0.00 0.03 0.03 77 1017.4
20260507050721 8 298 0.0 0.0 0.00 0.03 0.03 77 1017.4
20260507050215 8 298 0.0 0.0 0.00 0.03 0.03 77 1017.3
20260507045748 8 298 0.0 0.0 0.00 0.03 0.03 77 1017.2
20260507045709 -17 0.0 0.0 0.00 0.00 0.00 1017.2
20260507044736 8 288 0.0 4.8 0.00 0.00 0.00 77 1017.2
20260507044317 -17 3 3.2 0.0 0.00 0.03 0.03 1017.1
20260507043733 -17 0.0 0.0 0.00 0.00 0.00 1017.1
20260507043622 7 348 1.6 1.6 0.00 0.03 0.03 77 1017.1
20260507042630 7 302 0.0 0.0 0.00 0.03 0.03 77 1017.1
20260507042140 8 302 0.0 1.6 0.03 0.03 0.03 77 1017.0
20260507041747 8 302 0.0 1.6 0.03 0.03 0.03 76 1017.0
20260507041159 8 302 0.0 4.8 0.03 0.03 0.03 76 1017.0
20260507040735 8 303 0.0 4.8 0.03 0.03 0.03 76 1016.9
20260507040038 8 353 0.0 6.4 0.00 0.00 0.00 77 1016.9
20260507035735 8 358 1.6 8.0 0.00 0.00 0.03 77 1016.9
20260507035225 8 357 3.2 8.0 0.00 0.00 0.03 77 1016.9
20260507034638 8 118 0.0 1.6 0.00 0.00 0.03 76 1016.9
20260507034205 8 118 0.0 0.0 0.00 0.00 0.03 76 1016.9
20260507033703 8 118 0.0 0.0 0.00 0.00 0.03 75 1016.9
20260507033152 8 118 0.0 3.2 0.00 0.00 0.03 75 1016.8
20260507032642 8 118 0.0 4.8 0.00 0.00 0.03 75 1016.8
20260507032140 8 120 0.0 4.8 0.00 0.00 0.00 75 1016.8
20260507031742 8 120 4.8 4.8 0.00 0.00 0.00 75 1016.8
20260507031659 8 121 0.0 4.8 0.00 0.00 0.00 75 1016.9
20260507030629 8 65 0.0 0.0 0.00 0.00 0.00 75 1016.8
20260507030438 8 63 0.0 0.0 0.00 0.00 0.00 75 1016.8
20260506212227 11 62 3.2 9.7 0.03 0.51 0.53 66 1017.6
20260506211655 11 85 1.6 17.7 0.03 0.51 0.51 65 1017.7
20260506211145 11 73 11.3 17.7 0.03 0.51 0.51 65 1017.7
20260506210754 12 123 3.2 16.1 0.03 0.51 0.51 65 1017.6
20260506210125 12 85 8.0 11.3 0.03 0.51 0.51 65 1017.5
20260506205704 12 125 6.4 11.3 0.00 0.48 0.51 65 1017.4
20260506205154 12 96 6.4 9.7 0.00 0.48 0.51 65 1017.4
20260506204645 12 118 6.4 8.0 0.00 0.48 0.51 65 1017.1
20260506204232 12 292 0.0 4.8 0.03 0.48 0.48 65 1016.7
20260506203740 12 292 1.6 6.4 0.03 0.48 0.48 64 1016.4
20260506203248 12 300 3.2 6.4 0.03 0.48 0.48 64 1016.2
20260506203107 12 299 0.0 6.4 0.03 0.48 0.48 64 1016.0
20260506202842 12 248 1.6 6.4 0.05 0.48 0.48 64 1015.8
20260506202123 12 343 0.0 9.7 0.05 0.48 0.48 64 1015.8
20260506201055 12 282 3.2 9.7 0.00 0.00 0.00 63 1015.8
20260506200705 13 278 3.2 9.7 0.05 0.48 0.48 63 1015.8
20260506200304 13 281 3.2 9.7 0.05 0.48 0.48 64 1015.9
20260506195731 13 305 3.2 8.0 0.00 0.43 0.48 64 1015.7
20260506195139 13 266 1.6 11.3 0.00 0.43 0.48 63 1015.7
20260506194741 13 307 6.4 11.3 0.00 0.43 0.48 63 1015.6
20260506194155 13 302 0.0 4.8 0.03 0.43 0.46 64 1015.5
20260506193738 13 282 0.0 4.8 0.03 0.43 0.46 63 1015.5
20260506193248 13 289 1.6 4.8 0.03 0.43 0.46 62 1015.4
20260506192713 13 310 1.6 6.4 0.03 0.43 0.46 60 1015.2
20260506192157 13 320 0.0 6.4 0.03 0.43 0.43 60 1015.1
20260506191733 13 295 0.0 3.2 0.05 0.43 0.43 60 1014.9
20260506191722 13 286 0.0 8.0 0.05 0.43 0.43 60 1014.9
20260506190649 13 281 1.6 3.2 0.05 0.43 0.43 60 1014.7
20260506190633 13 261 0.0 8.0 0.05 0.43 0.43 60 1014.9
20260506185700 13 307 0.0 0.0 0.00 0.36 0.43 61 1014.7
20260506185149 13 307 0.0 6.4 0.03 0.36 0.43 60 1014.7
20260506184701 13 289 0.0 6.4 0.03 0.36 0.38 60 1014.6
20260506184141 13 296 0.0 6.4 0.03 0.36 0.38 61 1014.6
20260506183724 13 341 0.0 8.0 0.03 0.36 0.38 60 1014.5
20260506183241 13 286 0.0 8.0 0.05 0.36 0.38 60 1014.5
20260506182728 14 272 1.6 4.8 0.05 0.36 0.38 61 1014.4
20260506182147 14 299 0.0 6.4 0.05 0.36 0.36 62 1014.3
20260506181758 14 303 0.0 6.4 0.05 0.36 0.36 61 1014.4
20260506181220 14 293 1.6 6.4 0.10 0.36 0.36 61 1014.2
20260506180732 14 351 0.0 6.4 0.10 0.36 0.36 61 1014.2
20260506180657 14 285 1.6 4.8 0.00 0.28 0.36 61 1014.1
20260506180428 14 271 0.0 6.4 0.10 0.36 0.36 61 1014.1
20260506175144 14 293 0.0 4.8 0.03 0.28 0.33 60 1014.2
20260506174658 15 296 1.6 3.2 0.03 0.28 0.33 60 1014.1
20260506174136 15 296 0.0 4.8 0.03 0.28 0.33 60 1014.0
20260506173701 15 296 0.0 4.8 0.05 0.28 0.33 60 1014.1
20260506173234 15 288 1.6 3.2 0.05 0.28 0.30 60 1014.1
20260506172732 15 186 0.0 3.2 0.05 0.28 0.30 59 1014.1
20260506172222 15 171 0.0 3.2 0.10 0.28 0.30 59 1014.0
20260506172107 15 171 0.0 3.2 0.10 0.28 0.30 58 1013.9
20260506171233 16 171 0.0 1.6 0.10 0.28 0.28 58 1013.8
20260506170733 16 171 0.0 3.2 0.13 0.28 0.28 57 1013.8
20260506170139 16 169 0.0 3.2 0.13 0.28 0.28 56 1013.8
20260506165745 16 168 0.0 3.2 0.00 0.15 0.23 56 1013.8
20260506165713 16 166 0.0 3.2 0.03 0.15 0.23 54 1013.8
20260506164716 17 135 0.0 3.2 0.03 0.15 0.23 53 1013.9
20260506164300 17 131 0.0 8.0 0.03 0.15 0.23 52 1013.9
20260506163822 17 131 1.6 8.0 0.03 0.15 0.20 49 1013.8
20260506163159 17 134 0.0 0.0 0.03 0.15 0.20 46 1013.8
20260506162700 18 134 0.0 0.0 0.03 0.15 0.18 45 1013.7
20260506162211 18 134 0.0 0.0 0.03 0.15 0.18 43 1013.6
20260506162202 18 134 0.0 0.0 0.03 0.15 0.18 45 1013.7
20260506161204 19 134 0.0 1.6 0.03 0.15 0.18 41 1013.7
20260506160704 20 137 0.0 8.0 0.00 0.13 0.15 39 1013.6
20260506160654 19 134 0.0 6.4 0.03 0.15 0.15 41 1013.7
20260506160153 20 134 4.8 8.0 0.03 0.15 0.15 38 1013.7
20260506155616 20 275 3.2 9.7 0.00 0.13 0.13 37 1013.7
20260506154741 20 286 6.4 9.7 0.00 0.13 0.13 39 1013.8
20260506154647 20 292 1.6 9.7 0.00 0.13 0.13 40 1013.6
20260506154237 20 99 1.6 9.7 0.00 0.13 0.13 39 1013.8
20260506153714 20 130 1.6 6.4 0.00 0.13 0.13 38 1013.8
20260506152645 19 345 1.6 8.0 0.00 0.13 0.13 42 1013.9
20260506152220 18 23 3.2 11.3 0.00 0.13 0.13 40 1013.9
20260506152138 19 96 3.2 11.3 0.00 0.13 0.13 39 1013.9
20260506151153 19 0 4.8 8.0 0.00 0.13 0.13 40 1013.9
20260506150641 19 344 1.6 6.4 0.00 0.13 0.13 43 1013.9
20260506150232 19 235 3.2 8.0 0.00 0.13 0.13 40 1014.0
20260506145642 20 176 3.2 6.4 0.00 0.13 0.13 39 1014.1
20260506145610 20 224 1.6 8.0 0.00 0.13 0.13 39 1014.1
20260506144758 20 219 1.6 8.0 0.00 0.13 0.13 41 1014.1
20260506144224 20 147 3.2 8.0 0.00 0.13 0.13 40 1014.1
20260506143633 20 127 4.8 8.0 0.00 0.13 0.13 40 1014.1
20260506143154 20 144 1.6 11.3 0.00 0.13 0.13 39 1014.2
20260506143126 20 149 0.0 8.0 0.00 0.13 0.13 41 1014.1
20260506142145 20 135 3.2 11.3 0.00 0.13 0.13 38 1014.0
20260506141627 20 125 6.4 8.0 0.00 0.13 0.13 41 1014.1
20260506141310 20 130 3.2 8.0 0.00 0.13 0.13 43 1014.2
20260506140638 19 134 4.8 8.0 0.00 0.13 0.13 42 1014.2
20260506140226 18 85 3.2 8.0 0.00 0.13 0.13 44 1014.2
20260506140122 18 62 1.6 8.0 0.00 0.13 0.13 47 1014.2
20260506135243 17 90 1.6 9.7 0.00 0.13 0.13 48 1014.3
20260506134800 17 10 3.2 9.7 0.00 0.13 0.13 48 1014.4
20260506134144 17 44 3.2 9.7 0.00 0.13 0.13 49 1014.4
20260506133758 17 63 4.8 17.7 0.00 0.13 0.13 51 1014.5
20260506133730 17 75 3.2 17.7 0.00 0.13 0.13 52 1014.4
20260506132751 17 28 9.7 14.5 0.03 0.13 0.13 53 1014.5
20260506132733 17 113 3.2 19.3 0.03 0.13 0.13 58 1014.5
20260506131727 16 114 11.3 19.3 0.03 0.13 0.13 56 1014.6
20260506131235 16 0 6.4 11.3 0.03 0.13 0.13 61 1014.6
20260506130634 16 80 4.8 11.3 0.03 0.13 0.13 60 1014.7
20260506130258 16 31 6.4 11.3 0.03 0.13 0.13 62 1014.7
20260506125735 15 341 1.6 14.5 0.00 0.10 0.13 63 1014.7
20260506125147 15 66 9.7 11.3 0.03 0.10 0.13 66 1014.7
20260506124635 14 104 3.2 8.0 0.03 0.10 0.13 66 1014.7
20260506124254 13 0 1.6 6.4 0.03 0.10 0.13 68 1014.7
20260506123708 13 285 1.6 6.4 0.03 0.10 0.13 68 1014.7
20260506123234 13 317 0.0 8.0 0.03 0.10 0.13 69 1014.8
20260506122706 12 331 3.2 8.0 0.03 0.10 0.10 70 1014.8
20260506122241 12 338 0.0 6.4 0.03 0.10 0.10 68 1014.8
20260506122116 12 278 3.2 16.1 0.03 0.10 0.10 68 1015.1
20260506121209 13 231 4.8 17.7 0.03 0.10 0.10 64 1015.2
20260506120745 13 243 11.3 17.7 0.03 0.10 0.10 62 1015.2
20260506120200 14 237 11.3 22.5 0.03 0.10 0.10 60 1014.8
20260506115639 15 266 12.9 22.5 0.00 0.05 0.10 58 1014.8
20260506115231 16 265 3.2 9.7 0.00 0.05 0.05 55 1014.7
20260506115109 16 244 9.7 8.0 0.00 0.00 0.00 55 1014.7
20260506114148 16 209 4.8 9.7 0.00 0.00 0.00 54 1014.7
20260506113548 16 279 4.8 8.0 0.00 0.00 0.00 56 1014.6
20260506113200 16 298 4.8 8.0 0.03 0.05 0.05 55 1014.7
20260506113116 16 278 1.6 8.0 0.03 0.05 0.05 58 1014.8
20260506112228 16 221 4.8 11.3 0.03 0.05 0.05 58 1014.7
20260506111725 16 235 6.4 11.3 0.03 0.05 0.05 55 1014.6
20260506111210 17 235 4.8 11.3 0.03 0.05 0.05 55 1014.6
20260506110721 17 231 4.8 8.0 0.03 0.05 0.05 56 1014.5
20260506110138 17 137 1.6 14.5 0.03 0.05 0.05 54 1014.5
20260506105758 17 133 8.0 14.5 0.00 0.03 0.05 53 1014.6
20260506105252 18 110 8.0 9.7 0.00 0.03 0.05 52 1014.5
20260506105223 18 128 4.8 9.7 0.00 0.03 0.05 54 1014.6
20260506104255 17 85 4.8 9.7 0.00 0.03 0.05 59 1014.6
20260506103645 16 138 3.2 6.4 0.00 0.03 0.03 60 1014.6
20260506103205 16 195 0.0 8.0 0.00 0.03 0.03 56 1014.7
20260506102752 16 148 3.2 9.7 0.00 0.03 0.03 57 1014.8
20260506102734 16 135 8.0 8.0 0.00 0.03 0.03 58 1014.9
20260506101705 16 114 3.2 9.7 0.00 0.03 0.03 59 1014.9
20260506101224 16 99 4.8 8.0 0.00 0.03 0.03 61 1014.9
20260506101213 15 135 1.6 6.4 0.00 0.03 0.03 63 1014.9
20260506100607 15 199 0.0 0.0 0.00 0.03 0.03 65 1015.1
20260506100336 15 144 1.6 6.4 0.00 0.03 0.03 62 1015.2
20260506095209 14 199 0.0 0.0 0.00 0.03 0.03 65 1015.1
20260506094751 14 199 0.0 0.0 0.00 0.03 0.03 65 1015.1
20260506094144 13 199 0.0 3.2 0.00 0.03 0.03 65 1015.1
20260506093700 13 199 0.0 3.2 0.00 0.03 0.03 66 1015.2
20260506093130 14 121 0.0 4.8 0.00 0.03 0.03 67 1015.2
20260506092739 14 118 0.0 6.4 0.00 0.03 0.03 67 1015.1
20260506092206 14 118 0.0 6.4 0.00 0.03 0.03 69 1014.9
20260506092121 13 117 3.2 6.4 0.00 0.03 0.03 71 1014.9
20260506091152 13 159 3.2 4.8 0.03 0.03 0.03 72 1014.9
20260506090707 13 164 0.0 3.2 0.03 0.03 0.03 72 1014.8
20260506090246 13 164 0.0 3.2 0.03 0.03 0.03 73 1014.8